Regional Weather Roundup
Issued by NWS

Home | Current Version | Previous Version | Graphics & Text | Print | Product List | Glossary On
Versions: 1 2 3 4 5 6 7 8 9 10 11 12 13 14 15 16 17 18 19 20 21 22 23 24 25 26 27 28 29 30 31 32 33 34 35 36 37 38 39 40 41 42 43 44 45 46 47 48 49 50
000
ASUS44 KMEG 242010
RWRTN
TENNESSEE HOURLY STATE WEATHER ROUNDUP
NATIONAL WEATHER SERVICE MEMPHIS TN
300 PM CDT TUE MAY 24 2016

TNZ002-004-019-021-049-052-054-088>092-242100-
WEST TENNESSEE

CITY           SKY/WX    TMP DP  RH WIND       PRES   REMARKS
MEMPHIS INTL   PTSUNNY   87  64  46 S9G21     30.04F
NWS MEMPHIS      N/A     87 N/A N/A MISG        N/A
JACKSON        PTSUNNY   83  59  44 S8        30.06S
DYERSBURG      PTSUNNY   79  64  61 W3        30.05R
UNION CITY     SUNNY     84  59  42 SW10      30.04S
PARIS          SUNNY     84  59  42 S10       30.07R
LEXINGTON      SUNNY     84  55  37 S8        30.07S
$$

TNZ008-025-027-028-033-062-065-066-242100-
NORTH MIDDLE TENNESSEE

CITY           SKY/WX    TMP DP  RH WIND       PRES   REMARKS
NASHVILLE      MOSUNNY   86  50  28 S8        30.08F
CLARKSVILLE    SUNNY     81  58  45 S8        30.07F
SMYRNA         MOSUNNY   86  52  30 VRB7      30.09F
COOKEVILLE     SUNNY     84  54  34 VRB3      30.11S
CROSSVILLE     SUNNY     78  48  34 VRB6      30.15F
$$

TNZ061-075-076-078-094-096-097-242100-
SOUTH MIDDLE TENNESSEE

CITY           SKY/WX    TMP DP  RH WIND       PRES   REMARKS
FAYETTEVILLE   SUNNY     82  50  32 CALM      30.11F HAZE
TULLAHOMA      MOSUNNY   82  50  32 SW6       30.12F
WINCHESTER     SUNNY     86  52  30 VRB7      30.11F
MCMINNVILLE    SUNNY     84  54  34 SW5       30.11F
COLUMBIA       SUNNY     84  57  39 S6        30.08F
SHELBYVILLE    SUNNY     88  52  29 VRB3      30.10F
$$

TNZ017-018-042-046-047-242100-
NORTHEAST TENNESSEE

CITY           SKY/WX    TMP DP  RH WIND       PRES   REMARKS
TRI CITIES     MOSUNNY   76  50  40 W6        30.15S
$$

TNZ012-013-036-069-073-074-242100-
CENTRAL EAST TENNESSEE

CITY           SKY/WX    TMP DP  RH WIND       PRES   REMARKS
KNOXVILLE      MOSUNNY   82  50  32 NW6       30.11F
OAK RIDGE      SUNNY     81  51  35 VRB3      30.12F
GATLINBURG     SUNNY     82  46  28 VRB7      30.12F
$$

TNZ083-085-099-242100-
SOUTHEAST TENNESSEE

CITY           SKY/WX    TMP DP  RH WIND       PRES   REMARKS
CHATTANOOGA    MOSUNNY   86  50  28 VRB6      30.10F
$$

SKY/WX REPORTED AS FAIR MEANS FEW OR NO CLOUDS BELOW
12 THOUSAND FEET.





USA.gov is the U.S. government's official web portal to all federal, state and local government web resources and services.